Regional Weather Roundup
Issued by NWS Goodland, KS

Home | Current Version | Previous Version | Graphics & Text | Print | Product List | Glossary On
Versions: 1 2 3 4 5 6 7 8 9 10 11 12 13 14 15 16 17 18 19 20 21 22 23 24 25 26 27 28 29 30 31 32 33 34 35 36 37 38 39 40 41 42 43 44 45 46 47 48 49 50
000
ASUS43 KGLD 211708
RWRGLD

GOODLAND FORECAST AREA HOURLY WEATHER ROUNDUP
NATIONAL WEATHER SERVICE GOODLAND KS
1000 AM MST TUE FEB 21 2017

...OFFICIAL OBSERVATIONS...

CITY           SKY/WX    TMP DP  RH WIND       PRES   REMARKS
GOODLAND KS    SUNNY     64  24  21 N7        30.04R
HILL CITY KS   SUNNY     65  25  22 SW14G22   30.03F
IMPERIAL NEB   SUNNY     66  25  21 W14       29.98F
MCCOOK NEB     SUNNY     60  25  26 W6        29.99S
AKRON CO       SUNNY     64  25  22 W28G35    30.04S
BURLINGTON CO  SUNNY     70  25  18 NW22      30.05R
LIMON CO       SUNNY     65  18  16 W18G25    30.08F
$$

...UNOFFICIAL OBSERVATIONS...

CITY           SKY/WX    TMP DP  RH WIND       PRES   REMARKS
LENORA KS        N/A     64  32  30 SW9         N/A
NORTON KS      SUNNY     66  10  11 SW18      29.99F
SHARON SPRINGS   N/A     64  28  25 N9          N/A
TRENTON NEB      N/A     60  32  34 CALM        N/A
KIT CARSON CO    N/A     68  28  22 MISG        N/A
YUMA CO        FAIR      64  27  24 W22       30.04R
$$




USA.gov is the U.S. government's official web portal to all federal, state and local government web resources and services.